Location: Logan
(41.7360°N, 111.8340°W)
Time: 04:31:12
(UTC-06:00)

Daily predictions for brighter satellites

Satellite Brightness Start Highest point End
(mag) Time Altitude Azimuth Time Altitude Azimuth Time Altitude Azimuth
Gbstr 26 Del rocket 3.3 00:00:57 10° NW 00:05:19 64° N 00:05:19 64° N
Cosmos 1400 Rocket 3.8 00:11:14 45° NNE 00:11:14 45° NNE 00:14:12 10° NNE
Cosmos 1536 4.0 00:12:05 37° NNE 00:12:05 37° NNE 00:14:39 10° NNE
NOSS 3-1 (A) 4.1 00:13:36 10° NNW 00:21:12 75° NE 00:23:39 49° SE
Meteor 2-14 Rocket 4.3 00:20:49 73° SE 00:21:20 79° E 00:27:29 10° N
Cosmos 2369 Rocket 2.4 00:23:59 59° ENE 00:23:59 59° ENE 00:28:56 10° NNE
Meteor 2-15 4.3 00:18:05 10° N 00:24:14 80° E 00:24:44 74° SE
Meteor 1-23 Rocket 4.1 00:20:20 10° N 00:25:55 77° E 00:25:57 77° E
H-2A R/B 4.3 00:22:18 10° NNE 00:24:44 25° ENE 00:24:44 25° ENE
Meteor 1-19 Rocket 4.3 00:21:55 10° NNW 00:27:45 71° W 00:28:09 68° SW
Cosmos 1633 4.4 00:33:31 31° N 00:33:31 31° N 00:35:37 10° N
CZ-2C R/B 4.4 00:30:39 10° NE 00:33:24 20° ENE 00:33:24 20° ENE
Cosmos 1354 Rocket 4.0 00:29:42 10° NNW 00:34:39 77° NW 00:34:39 77° NW
H-2A R/B 3.9 00:34:32 19° WSW 00:35:35 20° W 00:39:28 10° NW
Cosmos 1892 Rocket 4.3 00:35:05 10° N 00:38:22 50° NNW 00:38:22 50° NNW
ATLAS 2AS CENTAUR R/B 3.8 00:34:32 10° NNW 00:42:20 46° NE 00:46:07 28° E
MOS 1-B Rocket 4.4 00:45:51 48° E 00:46:43 52° ENE 00:53:18 10° N
NOSS 3-1 (C) 4.1 00:43:46 10° NW 00:51:19 64° WSW 00:52:31 58° SSW
Meteor 1-5 Rocket 4.1 00:54:19 75° N 00:54:19 75° N 00:59:12 10° N
USA 234 3.9 00:49:07 10° NE 00:55:25 53° NNW 01:01:43 10° WSW
Cosmos 1992 Rocket 4.3 00:58:42 60° NE 00:58:42 60° NE 01:03:00 10° NNE
Cosmos 1605 Rocket 4.0 00:57:38 69° SW 00:58:14 74° W 01:04:40 10° N
Cosmos 1943 Rocket 2.9 01:00:09 43° ENE 01:00:09 43° ENE 01:04:22 10° NE
ISS -0.1 00:59:15 10° NW 01:01:10 14° N 01:02:37 12° NNE
Cosmos 2285 Rocket 4.4 01:04:24 50° WSW 01:05:34 58° WNW 01:11:54 10° NNE
SL-8 R/B 4.4 01:01:54 10° WNW 01:05:59 51° NNW 01:05:59 51° NNW
Cosmos 1455 Rocket 4.2 01:08:13 42° NNW 01:08:13 42° NNW 01:11:17 10° N
ALOS 2 3.6 01:08:39 43° NNW 01:08:39 43° NNW 01:11:42 10° NNW
Cosmos 2173 Rocket 4.1 01:14:29 60° E 01:14:31 60° E 01:20:46 10° NNE
Cosmos 1153 Rocket 4.4 01:15:30 75° WSW 01:15:50 78° W 01:22:11 10° N
Lacrosse 5 rocket 3.4 01:19:37 22° NNW 01:19:37 22° NNW 01:22:22 10° NNE
Meteor 1-12 Rocket 4.3 01:30:51 74° NW 01:30:51 74° NW 01:36:11 10° N
CZ-4B R/B 4.5 01:38:29 12° NNW 01:38:29 12° NNW 01:38:43 10° NNW
Lacrosse 5 3.5 01:35:50 22° WNW 01:38:06 32° NNW 01:42:40 10° NNE
Helios 1A Rocket 4.3 01:36:48 10° N 01:39:24 37° N 01:39:24 37° N
BREEZE-M DEB (TANK) 3.6 01:37:41 10° NW 01:41:22 73° NNE 01:55:20 10° ESE
SeaSat 1 4.1 01:40:59 23° E 01:42:24 27° NE 01:46:30 10° N
ATLAS 3B CENTAUR R/B 4.5 01:47:41 45° S 01:49:19 46° SSE 02:15:20 10° E
Cosmos 44 Rocket 3.9 01:44:22 10° NNW 01:48:32 58° N 01:48:32 58° N
GP-B 4.3 01:51:52 10° N 01:54:52 37° NW 01:54:52 37° NW
CZ-2C R/B 3.3 02:02:04 62° NNW 02:02:04 62° NNW 02:06:07 10° NNW
H-2A R/B 4.4 01:58:03 10° NNW 02:01:22 25° WNW 02:01:22 25° WNW
Meteor 1-21 4.3 01:57:28 10° N 02:03:00 68° ENE 02:03:00 68° ENE
Cosmos 2058 Rocket 4.4 02:05:01 36° NE 02:05:01 36° NE 02:08:06 10° NNE
Cosmos 968 Rocket 4.0 01:58:54 10° NNW 02:02:58 51° NW 02:02:58 51° NW
Cosmos 2369 Rocket 4.1 02:05:44 18° W 02:07:51 21° NW 02:12:07 10° N
SL-08 R/B 4.4 02:08:48 80° SW 02:09:08 85° W 02:15:35 10° N
NOSS 3-3 (A) 3.9 02:12:16 79° SE 02:12:26 80° ESE 02:19:08 10° NE
NOSS 3-3 (C) 3.9 02:12:22 78° SE 02:12:31 79° ESE 02:19:13 10° NE
CZ-2C R/B 3.1 02:10:04 10° N 02:14:55 48° WNW 02:14:55 48° WNW
Cosmos 1726 Rocket 4.5 02:20:08 45° N 02:20:08 45° N 02:23:11 10° N
Cosmos 2219 3.3 02:13:45 10° NNW 02:18:42 65° WNW 02:18:42 65° WNW
Cosmos 2227 Rocket 3.5 02:16:46 10° N 02:21:56 35° ENE 02:24:42 22° ESE
ATLAS CENTAUR R/B 3.9 02:24:30 17° E 02:24:30 17° E 02:26:59 10° ENE
Cosmos 44 3.6 02:19:32 10° NNW 02:24:18 66° NNE 02:24:18 66° NNE
Cosmos 1666 4.3 02:30:40 33° NNE 02:30:40 33° NNE 02:32:51 10° N
Cosmos 1656 Rocket 3.9 02:33:08 57° WNW 02:33:21 58° WNW 02:38:56 10° NNE
ATLAS 2AS CENTAUR R/B 3.2 02:25:49 10° NW 02:33:27 48° WSW 02:33:30 48° WSW
Cosmos 1758 Rocket 4.5 02:30:20 10° NNW 02:33:33 45° NNW 02:33:33 45° NNW
Cosmos 2098 Rocket 4.2 02:35:45 61° SW 02:36:49 70° W 02:44:24 10° N
Cosmos 2233 Rocket 3.8 02:36:46 72° SSE 02:37:20 80° E 02:43:29 10° N
ISS0.002:41:16ENE02:41:16ENE02:35:07NW
Cosmos 2278 4.2 02:40:47 47° ESE 02:40:56 47° ESE 02:46:21 10° NE
Cosmos 2369 4.3 02:42:24 42° ESE 02:42:39 43° ESE 02:47:57 10° NE
Cosmos 1943 Rocket 3.7 02:41:39 23° WNW 02:43:00 25° NW 02:47:36 10° N
Cosmos 2297 Rocket 3.5 02:38:04 10° N 02:43:16 36° ENE 02:47:02 17° ESE
NPP 4.4 02:41:10 10° NNE 02:46:17 41° E 02:46:51 40° ESE
Meteor 2-17 Rocket 4.3 02:46:02 73° S 02:46:42 88° E 02:52:51 10° N
Cosmos 405 Rocket 4.4 02:46:12 10° NNE 02:49:45 28° ENE 02:49:57 28° E
Cosmos 2208 Rocket 4.0 02:50:42 68° WNW 02:50:42 68° WNW 02:55:52 10° NNE
BREEZE-M DEB (TANK) 3.1 02:53:00 10° WNW 02:58:52 52° NNW 02:58:52 52° NNW
Cosmos 2298 Rocket 4.4 02:55:48 10° NNW 03:01:03 58° ENE 03:02:30 43° ESE
Cosmos 2228 3.7 03:05:51 46° NW 03:05:51 46° NW 03:09:17 10° N
ERS-2 3.9 03:05:43 10° NE 03:08:38 27° E 03:08:38 27° E
USA 161 4.4 03:11:10 14° ENE 03:11:10 14° ENE 03:12:45 10° NE
IRAS Rocket 4.5 03:13:35 10° NNE 03:19:11 63° ESE 03:20:32 48° SSE
SeaSat 1 3.2 03:20:47 39° WNW 03:20:47 39° WNW 03:24:26 10° NW
Cosmos 468 Rocket 4.0 03:21:35 61° SSE 03:22:17 69° ESE 03:27:25 10° NNE
Cosmos 1656 4.1 03:24:57 44° SSE 03:26:19 54° ESE 03:31:51 10° NNE
NOSS 2-1 (D) 3.4 03:27:08 75° ENE 03:27:08 75° ENE 03:31:16 10° NE
NOSS 2-1 (C) 3.4 03:28:29 77° ENE 03:28:29 77° ENE 03:32:40 10° NE
Cosmos 1707 2.9 03:27:03 10° N 03:30:56 70° ENE 03:30:56 70° ENE
Cosmos 2034 Rocket 4.0 03:34:50 42° S 03:37:07 81° E 03:43:19 10° N
CZ-2D R/B 3.5 03:32:36 10° NNE 03:37:28 32° E 03:40:28 19° SE
IRS-1C 4.1 03:32:38 10° NNE 03:38:01 83° ESE 03:39:25 51° S
Cosmos 2150 Rocket 3.8 03:33:45 10° NNW 03:38:58 75° WSW 03:40:00 56° S
Cosmos 1812 Rocket 3.9 03:40:15 52° W 03:40:17 52° W 03:44:40 10° N
AQUA 3.8 03:37:59 10° N 03:42:44 71° WNW 03:43:27 60° SW
NOSS 2-1 (E) 3.3 03:43:08 74° W 03:43:21 77° NW 03:47:55 10° NNE
Nadezhda 4 Rocket 4.3 03:39:32 10° N 03:45:42 66° E 03:50:07 20° SSE
Cosmos 1898 Rocket 3.5 03:41:24 10° NNW 03:46:42 63° WSW 03:47:47 51° SSW
SL-16 R/B 3.0 03:41:28 10° SSE 03:47:29 58° ENE 03:53:31 10° N
Cosmos 1697 Rocket 2.9 03:50:22 39° S 03:52:26 66° ESE 03:58:04 10° NNE
Cosmos 841 Rocket 3.9 03:51:36 34° SSE 03:53:39 56° ESE 03:58:49 10° NNE
CBERS 1 LM4 rocket 4.3 03:50:52 10° N 03:55:39 74° WNW 03:56:55 49° SW
Cosmos 2082 3.9 03:50:31 10° NW 03:55:51 45° WSW 03:56:38 42° SW
NOSS 3-4 (A) 3.7 03:49:37 10° NW 03:56:39 84° WSW 04:04:04 10° SSE
NOSS 3-4 (C) 3.7 03:49:44 10° NW 03:56:47 85° SW 04:04:15 10° SSE
Geosat 4.0 03:52:17 10° NNE 03:57:18 71° WNW 03:58:50 45° SW
Cosmos 1937 Rocket 3.4 03:52:44 10° NNW 03:57:54 70° WSW 03:59:50 38° S
Cosmos 1763 Rocket 3.6 03:57:36 39° S 03:59:32 72° ESE 04:04:43 10° NNE
GEOS 3 Rocket 4.2 03:55:43 10° SE 04:00:49 57° NE 04:05:53 10° NNW
Cosmos 1980 Rocket 2.9 03:58:11 26° SSE 04:01:00 47° ESE 04:06:24 10° NE
ATLAS CENTAUR R/B 2.0 04:00:50 43° WSW 04:02:18 64° NW 04:07:17 10° NNE
Cosmos 2227 Rocket 2.8 04:00:51 10° NW 04:05:57 35° WSW 04:06:27 35° WSW
NOSS 7 (D) 4.2 04:06:34 78° SSW 04:06:46 86° SE 04:10:10 10° NE
SL-08 R/B 4.3 04:12:19 28° W 04:12:19 28° W 04:16:12 10° NW
ARIANE 5 R/B 2.5 04:07:37 10° NNE 04:12:47 89° ESE 04:15:18 32° SSW
Cosmos 2322 Rocket 4.1 04:08:53 10° SSE 04:13:09 23° E 04:17:25 10° NE
ISS -3.5 04:14:22 45° WNW 04:15:16 84° SW 04:18:30 10° SE
Meteor 2-5 Rocket 4.4 04:10:35 10° NNW 04:15:58 38° W 04:17:43 31° SW
Resurs 1-4 Rocket 2.2 04:11:21 10° NNE 04:16:38 74° ESE 04:19:45 25° S
ADEOS 3.8 04:11:34 10° N 04:16:40 54° WNW 04:18:43 33° SW
Okean 3 Rocket 4.1 04:13:39 10° NNW 04:17:44 38° W 04:18:16 36° WSW
Cosmos 1634 Rocket 4.2 04:18:23 17° S 04:23:20 71° E 04:29:37 10° NNE
Cosmos 405 Rocket 4.4 04:22:37 10° NW 04:25:09 20° W 04:25:09 20° W
UNK 3.7 04:23:05 21° S 04:26:09 76° WSW 04:30:51 10° NNW
Meteor 2-12 Rocket 4.5 04:23:20 28° SSW 04:26:32 62° W 04:32:33 10° N
Cosmos 540 Rocket 4.5 04:22:45 15° SSE 04:26:43 41° ESE 04:31:34 10° NNE
Cosmos 2297 Rocket 2.9 04:22:13 10° NW 04:27:13 33° WSW 04:28:44 29° SW
Cosmos 1378 3.3 04:26:44 10° NNW 04:30:26 53° W 04:31:33 38° SSW
Cosmos 1766 3.8 04:33:18 34° WSW 04:34:24 43° WNW 04:38:11 10° N
Cosmos 1092 Rocket 4.0 04:29:35 10° NNW 04:35:50 70° W 04:41:41 12° S
IRS-1D 3.7 04:36:13 10° N 04:41:04 54° WNW 04:43:53 24° SW
USA 161 3.5 04:42:19 17° WNW 04:42:19 17° WNW 04:43:28 10° NW
Cosmos 1076 Rocket 3.9 04:37:44 10° NNW 04:41:52 44° W 04:43:50 26° SSW
ERS-2 3.8 04:39:47 10° NNW 04:42:34 20° WNW 04:43:28 19° W
CZ-2C R/B 4.5 04:38:56 10° SSE 04:43:30 55° ENE 04:48:01 10° N
Cosmos 2360 4.3 04:40:39 19° SSW 04:44:51 76° ESE 04:50:35 10° NNE
SL-16 R/B 3.3 04:41:07 10° S 04:46:22 40° ESE 04:51:38 10° NE
GPS 2-04 Rocket1 3.5 04:46:09 28° SW 04:47:11 33° S 04:50:41 10° ESE
Cosmos 1500 Rocket 4.0 04:43:37 10° N 04:47:59 62° E 04:52:18 10° SSE
UNKNOWN OBJECT B 2.7 04:44:38 10° N 04:48:33 72° WNW 04:50:51 23° SSW
Abrixas 2.4 04:48:44 10° WNW 04:51:47 86° SW 04:54:52 10° ESE
Cosmos 1743 Rocket 3.4 04:48:49 10° N 04:53:10 79° W 04:57:30 10° S
Milstar 3 Cent rocket 3.5 04:53:53 18° SSW 04:56:27 25° S 05:02:46 10° ESE
Cosmos 2263 Rocket 4.1 04:55:07 10° N 05:00:10 33° ENE 05:05:10 10° ESE
EO 1 Del DPAF 3.9 04:58:07 20° SSW 05:00:11 34° W 05:03:46 10° NNW
Cosmos 1441 Rocket 4.3 04:57:00 10° NNW 05:00:26 28° W 05:02:10 20° SW
Cosmos 1758 3.7 04:58:13 21° SW 05:00:37 47° W 05:04:31 10° N
Okean O Rocket 1.7 04:57:04 10° NNE 05:01:28 77° ESE 05:05:53 10° S
Cosmos 1805 3.7 05:02:32 19° SW 05:04:58 44° WNW 05:08:45 10° N
Cosmos 1953 2.9 05:02:41 19° SW 05:05:07 40° WNW 05:08:59 10° N
CZ-4B R/B 3.5 05:01:36 10° NNE 05:07:08 69° ESE 05:12:32 10° S
PAYLOAD B 4.5 05:01:40 10° NNE 05:07:18 72° ESE 05:12:51 10° S
Cosmos 1733 3.8 05:04:50 10° S 05:08:32 56° E 05:12:16 10° NNE
Cosmos-2242 3.7 05:06:47 17° SW 05:09:35 37° WNW 05:13:35 10° N
Cosmos 2221 4.2 05:06:51 10° SSE 05:10:42 34° E 05:14:35 10° NNE
UNK 4.2 05:09:26 10° NW 05:11:51 22° N 05:13:36 10° ENE
USA 81 4.1 05:07:13 10° SSW 05:12:28 68° W 05:17:45 10° N
Cosmos 2227 4.4 05:11:20 10° NNW 05:16:54 51° WSW 05:22:27 10° S
Cosmos 2279 Rocket 4.0 05:11:08 10° SSW 05:17:23 76° W 05:23:40 10° N
CZ-2D R/B 3.0 05:12:37 10° N 05:17:30 34° WNW 05:21:48 12° SW
ARGOS Delta rocket 4.0 05:14:58 10° NNE 05:20:08 80° ESE 05:24:56 10° S
Cosmos 1544 3.5 05:18:23 13° SSW 05:21:29 44° W 05:25:01 10° N
Cosmos 372 Rocket 3.9 05:17:09 10° NNW 05:22:14 68° WSW 05:27:16 10° S
MOZ.5/SAFIR/RUBIN 5/SL-8 3.8 05:18:41 10° S 05:23:22 65° WSW 05:28:02 10° NNW
IRS-1C Rocket 4.2 05:18:57 10° N 05:24:09 63° WNW 05:29:20 10° SSW
ADEOS II 3.5 05:20:48 10° NNE 05:25:43 39° E 05:30:37 10° SSE
Cosmos 1437 4.0 05:24:44 10° NW 05:27:30 24° W 05:30:14 10° SSW
Cosmos 2058 3.9 05:26:07 10° N 05:30:16 52° E 05:34:23 10° SSE
SL-16 R/B 3.7 05:26:46 10° SW 05:31:28 22° W 05:36:10 10° NW
PSLV R/B 4.3 05:28:12 10° NNE 05:32:21 52° E 05:36:31 10° S
Cosmos 1125 Rocket 4.3 05:30:10 10° NW 05:34:41 31° W 05:39:11 10° SSW
Cosmos 1697 Rocket 4.3 05:32:44 10° W 05:36:55 21° NW 05:41:07 10° N
Aureole 3 4.4 05:34:41 10° N 05:38:59 65° E 05:44:29 10° SSE
Cosmos 1655 Rocket 4.5 05:33:27 10° NNW 05:39:26 43° W 05:45:23 10° SSW
Cosmos 1842 Rocket 4.3 05:36:02 10° SW 05:40:10 37° WNW 05:44:21 10° N
Cosmos 1674 3.2 05:36:42 10° NNW 05:40:14 38° W 05:43:44 10° SSW
RESURS DK-1 2.7 05:37:07 10° NW 05:41:02 42° WSW 05:44:55 10° S
Cosmos 332 Rocket 4.4 05:37:21 10° SW 05:41:54 41° WNW 05:46:30 10° N
ADEOS Rocket 4.0 05:35:35 10° NNE 05:42:04 60° E 05:49:12 10° S
ATLAS CENTAUR R/B 4.1 05:39:55 10° WNW 05:42:22 13° NW 05:44:47 10° N
Cosmos 2266 Rocket 4.2 05:37:50 10° N 05:44:00 80° E 05:50:16 10° S
Cosmos 1980 Rocket 3.4 05:40:28 10° WSW 05:45:12 27° NW 05:50:00 10° N
Meteor 1-11 4.5 05:39:46 10° N 05:45:24 78° E 05:51:04 10° SSE
Cosmos 2360 Rocket 3.2 05:40:07 10° S 05:45:29 48° ESE 05:50:54 10° NE
Okean-O 2.8 05:42:23 10° NNE 05:46:51 78° ESE 05:51:16 10° S
CZ-4B DEB 4.4 05:42:38 10° N 05:48:04 59° WNW 05:53:29 10° SSW
Cosmos 1805 Rocket 3.8 05:44:39 10° N 05:49:02 77° E 05:53:23 10° SSE
Aureole 1 Rocket 4.4 05:43:35 10° SW 05:49:26 55° WNW 05:57:00 10° NNE
Feng Yun 1-1 Rocket 4.5 05:47:14 10° NNE 05:52:53 77° ESE 05:58:20 10° S
CZ-3 R/B 3.5 05:45:11 10° WSW 06:06:22 37° S 06:12:38 10° ESE
